#timestamp,LO_Frequency,Hit,StdDev 
1565805615.5,286047000.1,N
1565805635.4,286047000.9,N
1565805655.2,286047002.7,N
1565805675.1,286047000.2,N
1565805676.0,286047000.2,N
1565805695.8,286046998.3,N
1565805715.6,286047001.9,N
1565805735.5,286047000.2,N
1565805755.3,286047002.0,N
1565805775.1,286047001.3,N
1565805795.9,286047002.3,N
1565805815.7,286047000.1,N
1565805835.6,286046999.9,N
1565805855.4,286047000.5,N
1565805875.2,286046998.1,N
1565805895.1,286047001.6,N
1565805896.0,286047001.6,N
1565805915.8,286047002.3,N
1565805935.7,286047001.9,N
1565805955.5,286047002.7,N
1565805975.3,286047002.3,N
1565805995.2,286047001.9,N
1565806015.0,286047001.8,N
1565806015.9,286047001.8,N
1565806035.8,286047003.9,Y
1565806055.6,286047005.5,P
1565806075.4,286047005.5,N
1565806095.3,286047003.3,N
1565806115.1,286047003.0,N
1565806135.8,286047003.7,N
1565806155.7,286047003.5,N
1565806175.5,286047003.3,N
1565806195.4,286047004.0,N
1565806215.2,286047006.0,Y
1565806235.0,286046999.8,P
1565806235.9,286046999.8,N
1565806255.8,286046998.1,N
1565806275.6,286047000.8,N
1565806295.5,286047001.0,N
1565806315.3,286047002.3,N
1565806335.1,286046999.9,N
1565806355.9,286047000.0,N
1565806375.7,286047002.6,N
1565806395.5,286047002.2,N
1565806415.4,286046999.7,N
1565806435.2,286047002.3,N
1565806455.1,286047002.7,N
1565806456.0,286047002.7,N
1565806475.8,286047002.2,N
1565806525.7,286047001.7,E
1565806535.6,286046999.7,N
1565806555.4,286047000.4,P
1565806575.2,286047004.0,P
1565806595.1,286047004.0,N
1565806596.0,286047004.0,N
1565806615.8,286047003.1,N
1565806635.7,286047002.0,N
1565806655.5,286047001.9,N
1565806675.3,286047002.7,N
1565806695.2,286046999.9,N
1565806715.0,286047002.8,N
1565806715.9,286047002.8,N
1565806735.7,286047001.3,N
1565806755.6,286047003.8,N
1565806775.4,286047003.8,N
1565806795.3,286047004.3,N
1565806815.1,286047004.2,N
1565806816.0,286047004.2,N
1565806835.8,286047005.4,Y
1565806855.7,286047003.9,P
1565806875.5,286047002.1,P
1565806895.4,286047000.4,N
1565806915.2,286047001.4,N
1565806935.0,286047002.6,N
1565806935.9,286047002.6,N
1565806955.8,286047001.6,N
1565806975.6,286047003.6,Y
1565806995.4,286047000.3,P
1565807015.3,286047000.2,N
1565807035.1,286047000.1,N
1565807055.9,286046999.9,N
1565807075.7,286046999.7,N
1565807095.5,286047001.9,N
1565807115.4,286046999.8,N
1565807135.2,286047002.5,N
1565807155.0,286046999.9,N
1565807156.0,286046999.9,N
1565807175.8,286047002.4,N
1565807195.6,286047000.3,N
1565807215.5,286047001.9,N
1565807235.3,286047001.9,N
1565807255.1,286047002.0,N
1565807275.9,286047003.2,N
1565807295.7,286047003.6,Y
1565807315.6,286047001.9,P
1565807335.4,286047001.3,P
1565807355.2,286047004.3,P
1565807375.1,286047001.6,N
1565807376.0,286047001.6,N
1565807395.8,286047002.3,N
1565807415.6,286047001.6,N
1565807435.5,286047004.3,Y
1565807455.3,286047000.0,P
1565807475.2,286046999.8,N
1565807495.9,286047003.6,P
1565807515.7,286047000.2,N
1565807535.6,286047002.8,N
1565807555.4,286047000.7,N
1565807575.2,286047000.9,N
1565807595.1,286047001.2,N
1565807596.0,286047001.2,N
1565807615.8,286047001.2,N
1565807635.7,286047000.4,N
1565807655.5,286046998.8,N
1565807675.3,286046996.7,N
1565807695.2,286047000.8,N
1565807715.0,286046998.6,N
1565807715.9,286046998.6,N
1565807735.8,286047004.4,N
1565807755.6,286047000.4,N
1565807775.4,286046999.3,N
1565807795.3,286046996.6,N
1565807815.1,286046999.3,N
1565807835.8,286046997.3,N
1565807855.7,286046997.4,N
1565807875.5,286046997.5,N
1565807895.3,286046996.6,N
1565807915.2,286046997.6,N
1565807935.0,286046997.0,N
1565807935.9,286046997.0,N
1565807955.8,286046995.5,N
1565807975.6,286046997.0,N
1565807995.4,286046996.6,N
1565808015.3,286046993.4,N
1565808035.1,286046995.8,N
1565808055.9,286046995.2,N
1565808075.7,286046995.3,N
1565808095.5,286046995.2,N
1565808115.4,286046996.1,N
1565808135.2,286046995.3,N
1565808155.0,286046995.7,N
1565808155.9,286046995.7,N
1565808175.8,286046996.4,N
1565808195.6,286046994.0,N
1565808215.5,286046994.0,N
1565808235.3,286046991.8,Y
1565808255.1,286046998.0,P
1565808275.9,286046995.7,P
1565808295.7,286046995.8,P
1565808315.5,286046998.0,N
1565808335.4,286046997.1,N
1565808355.2,286046997.1,Y
1565808375.1,286047000.4,P
1565808376.0,286047000.4,N
1565808395.8,286046999.9,N
1565808415.6,286046999.1,N
1565808435.5,286046999.4,N
1565808455.3,286046996.8,N
1565808475.1,286046998.1,N
1565808495.9,286046998.7,N
1565808515.7,286046996.7,N
1565808535.6,286046999.0,N
1565808555.4,286046999.5,N
1565808575.2,286046999.1,N
1565808595.1,286047000.9,N
1565808596.0,286047000.9,N
1565808615.8,286046998.7,N
1565808635.6,286046996.5,N
1565808655.5,286046997.8,N
1565808675.3,286046996.6,N
1565808695.2,286046996.7,N
1565808715.9,286046997.4,N
1565808735.7,286046995.0,Y
1565808755.6,286046997.3,P
1565808775.4,286046994.9,P
1565808795.2,286046997.4,N
1565808815.1,286046999.3,N
1565808816.0,286046999.3,N
1565808835.8,286046997.1,N
1565808855.7,286046997.6,N
1565808875.5,286046998.0,N
1565808895.3,286046995.1,Y
1565808915.2,286047001.9,P
1565808935.0,286046999.7,N
1565808935.9,286046999.7,N
1565808955.8,286047002.0,N
1565808975.6,286047000.1,N
1565808995.4,286047002.1,N
1565809015.3,286047002.6,N
1565809035.1,286047002.1,N
1565809036.0,286047002.1,N
1565809055.8,286046999.7,N
1565809075.7,286047004.7,Y
1565809095.5,286047004.4,P
1565809115.4,286047002.8,N
1565809135.2,286047002.5,N
1565809155.0,286047002.0,N
1565809155.9,286047002.0,N
1565809175.8,286047001.7,N
1565809195.6,286047002.6,N
